Regional Weather Roundup
Issued by NWS

Home | Current Version | Previous Version | Text Only | Print | Product List | Glossary On
Versions: 1 2 3 4 5 6 7 8 9 10 11 12 13 14 15 16 17 18 19 20 21 22 23 24 25 26 27 28 29 30 31 32 33 34 35 36 37 38 39 40 41 42 43 44 45 46 47 48 49 50
000
ASUS42 KKEY 011810
RWRKEY

FLORIDA REGIONAL WEATHER ROUNDUP FOR THE FLORIDA KEYS
NATIONAL WEATHER SERVICE KEY WEST FLORIDA
100 PM EST SUN FEB 01 2015

...SOUTH FLORIDA AND THE KEYS...

CITY           SKY/WX    TMP DP  RH WIND       PRES   REMARKS
FORT MYERS     SUNNY     76  52  43 SE10G21   30.16F
SW REGIONAL AP SUNNY     76  51  41 S13       30.16F
NAPLES         MOSUNNY   77  52  41 E14       30.15F
MIAMI          PTSUNNY   75  55  49 E14       30.18F
WEST KENDALL   PTSUNNY   73  56  54 SE12      30.18F
HOMESTEAD      SUNNY     74  57  56 E13       30.18F
MARATHON       MOSUNNY   78  62  57 E10G17    30.15F
BOCA CHICA NAS PTSUNNY   77  62  59 E14       30.14F
KEY WEST INTL  PTSUNNY   75  63  66 E10       30.14F

...INTERNATIONAL WEATHER...

CITY           SKY/WX    TMP DP  RH WIND       PRES   REMARKS
NASSAU BAHAMAS MOSUNNY   77  61  57 E16       30.15F
CANCUN MEXICO  MOSUNNY   82  64  54 S16       30.04F
COZUMEL MEXICO MOSUNNY   77  66  69 SE14      30.05F

ADJACENT COASTAL WATERS...

STATION/POSITION TIME  SKY/WX   TEMP    WIND        PRES    WAVE
                                AIR SEA DIR/SP/G            HT/PER
                 (UTC)          (F)     (DEG/KT/KT) (MB)    (FT/S)
PULASKI SHOAL LI NOT AVBL
SAND KEY         NOT AVBL
SOMBRERO KEY     NOT AVBL
LONG KEY         NOT AVBL
MOLASSES REEF    NOT AVBL
FOWEY ROCKS      NOT AVBL
Buoy 42080       NOT AVBL

$$



USA.gov is the U.S. government's official web portal to all federal, state and local government web resources and services.